STARLINK-34891, 65373

Orbit data source: Space-Track

STARLINK-34891, 65373 is a payload satellite owned by SpaceX/Seattle (US) in LEO that was launched on Thu, 28 Aug 2025 UTC via an FALCON 9 launch vehicle from the Air Force Eastern Test Range (AFETR). Payload-class satellites include a variety of spacecraft equipped with specific instruments for various scientific and technological missions. These include communications satellites like Starlink; space stations such as the ISS; scientific satellites like the Hubble; Earth observation satellites from companies like Planet Labs, Umbra, and HawkEye 360; GPS; miniature CubeSats for education and research; and military/defense satellites.

Loading next visibility...
Identifier
65373, 2025-190Y
Orbit
LEO
Country
Flag of USUS
Related business
Manufacturer
SpaceX/Seattle
Mission
Operational Commercial Communications
Bus & Motor
STARLINK V2MO, Unknown motor
Mass
575 kg wet, ~530 kg dry
Launch date (UTC)
2025-08-28 (7 months ago)
Launch vehicle
FALCON 9
Launch site
Air Force Eastern Test Range (AFETR)
Object type
Payload
Rocket body
Debris
Shape & HBR
Box + 2 Pan, 17.7 m
Radar Cross Section
36.964 m², Large (>1 m²)

Expand to show TLE details & history
Last TLE update: 9 hours ago

TLE from 9 hours ago
0 STARLINK-34891
1 65373U 25190Y   26094.24497617  .00041369  00000-0  14008-2 0  9990
2 65373  53.1600  49.7628 0001137 108.5374 251.5751 15.30207175 33145
Epoch: 2026-04-04T05:52Z
TLE epoch observation values (Epoch: 2026-04-04T05:52:45.941Z)
Latitude
0.00005°
Longitude
129.00389°
Altitude
476.34 km
Speed
7.629 km/s
True Right ascension
03h 19m 03s
True Declination
0° 00' 00"
Sunlit
Object was in daylight at epoch
Visualization orbit readout
Latitude
Unknown
Longitude
Unknown
Altitude
Unknown
Speed
Unknown
Apparent Right ascension
Unknown
Apparent Declination
Unknown
Sunlit
N/A
Visualization observer readout
Local Sidereal Time
21:09:45
Azimuth
Unknown
Elevation
Unknown
Doppler factor
Unknown
Orbital elements
Apogee altitude
476.229 km
Perigee altitude
474.671 km
Semi-major axis
6,853.587 km
Eccentricity
0.00011
Inclination
53.16°
RAAN
49.7628°
Arg. of periapsis
108.5374°
True anomaly
251.56274°
Mean anomaly
251.5751°
Eccentric anomaly
251.56892°
Mean motion
3.82531 °/min
Orbital period
94.11 mins
BSTAR
0.0014008
Loading maneuver chart data...
Computing Atmospheric mass density...
Loading historical data...
Loading historical data...
Loading historical data...
Loading historical data...
Loading historical data...
Loading historical data...
Loading historical data...

Documentation

Showing up to 5 results
|